{"data":{"norad_id":48059,"intl_designator":"2021-025T","name":"ONEWEB-0148","alt_names":[],"object_type":"PAYLOAD","status":"ACTIVE","operator":null,"country":"UK","launch_date":"2021-03-25","launch_site_code":"VOSTO","launch_vehicle":null,"mission":null,"orbit_class":"UNKNOWN","rcs_meters":null,"size_class":null,"mass_kg":null,"dimensions":null,"purposes":["comms"],"wikipedia_slug":null,"has_3d_model":false,"image_url":null,"decayed_at":null,"tle_current":{"epoch":"2026-05-25T04:36:35.794080Z","epoch_age_seconds":54660,"freshness":"FRESH","line1":"1 48059U 21025T   26145.19208095  .00000267  00000+0  69525-3 0  9992","line2":"2 48059  87.8942 324.8117 0002198 103.5893 256.5481 13.13468229250592","mean_motion":13.13468229,"eccentricity":0.0002198,"inclination_deg":87.8942,"raan_deg":324.8117,"arg_perigee_deg":103.5893,"mean_anomaly_deg":256.5481,"bstar":0.00069525,"rev_number":25059,"period_min":109.63340933616,"perigee_km":1208.1043981602,"apogee_km":1211.4400430536,"semimajor_km":7587.9092206069,"source":"CELESTRAK","updated_at":"2026-05-25T13:38:22.391235Z"}}}